Weather History for Evanston, WY

Change the Weather History Date:

Wednesday, March 20, 2013

  Actual Average Record
Temperature  
Mean Temperature 36 °F 32 °F  
Max Temperature 43 °F 41 °F 61 °F (2004)
Min Temperature 29 °F 23 °F 13 °F (2012)
Degree Days  
Heating Degree Days 29 33  
Month to date heating degree days 633 717  
Since 1 July heating degree days 6228 6725  
Cooling Degree Days 0 0  
Month to date cooling degree days 0 0  
Year to date cooling degree days 0 0  
Moisture  
Dew Point 27 °F    
Average Humidity 63    
Maximum Humidity 96    
Minimum Humidity 30    
Precipitation  
Precipitation 0.01 in 0.03 in 0.09 in (2005)
Month to date precipitation 0.17 0.44  
Year to date precipitation 0.64 1.59  
Sea Level Pressure  
Sea Level Pressure 29.95 in    
Wind  
Wind Speed 13 mph (SW)    
Max Wind Speed 31 mph    
Max Gust Speed 37 mph    
Visibility 8 miles    
Events Rain , Snow    
T = Trace of Precipitation, MM = Missing Value Source: NWS Daily Summary

Daily Weather History Graph

Daily Weather History Graph

Search for Another Location

Airport:

Trip Planner

Search our weather history database for the weather conditions in past years. The results will help you decide how hot, cold, wet, or windy it might be!

Date:

Astronomy

Mar. 20, 2013 Rise Set
Actual Time 7:26 AM MDT 7:36 PM MDT
Civil Twilight 6:59 AM MDT 8:04 PM MDT
Nautical Twilight 6:27 AM MDT 8:36 PM MDT
Astronomical Twilight 5:54 AM MDT 9:09 PM MDT
Moon 1:11 PM MDT (3/20) 3:12 AM MDT (3/20)
Length of Visible Light 13h 04m
Length of Day
12h 09m
First Quarter, 60% of the Moon is Illuminated
Mar 20
First Quarter
Mar 27
Full
Apr 2
Last Quarter
Apr 10
New
Apr 18
First Quarter

Hourly Weather History & Observations

Time (MDT) Temp. Windchill Dew Point Humidity Pressure Visibility Wind Dir Wind Speed Gust Speed Precip Events Conditions
12:53 AM 28.9 °F 22.8 °F 5.0 °F 36% 30.14 in 10.0 mi SE 5.8 mph - N/A   Clear
1:53 AM 28.9 °F 23.9 °F 5.0 °F 36% 30.11 in 10.0 mi SSE 4.6 mph - N/A   Clear
2:53 AM 30.0 °F 24.1 °F 5.0 °F 35% 30.08 in 10.0 mi East 5.8 mph - N/A   Clear
3:53 AM 30.0 °F 25.2 °F 3.9 °F 33% 30.04 in 10.0 mi ESE 4.6 mph - N/A   Clear
4:53 AM 30.9 °F 26.2 °F 3.0 °F 31% 30.01 in 10.0 mi SSE 4.6 mph - N/A   Mostly Cloudy
5:53 AM 30.0 °F 25.2 °F 5.0 °F 35% 30.00 in 10.0 mi South 4.6 mph - N/A   Partly Cloudy
6:53 AM 32.0 °F 28.7 °F 3.9 °F 31% 29.98 in 10.0 mi South 3.5 mph - N/A   Mostly Cloudy
7:53 AM 32.0 °F 26.4 °F 8.1 °F 37% 29.99 in 10.0 mi SSW 5.8 mph - N/A   Mostly Cloudy
8:53 AM 34.0 °F 28.8 °F 12.0 °F 40% 29.99 in 10.0 mi SW 5.8 mph - N/A   Overcast
9:53 AM 36.0 °F 27.5 °F 21.0 °F 55% 29.98 in 10.0 mi SW 12.7 mph - N/A   Overcast
10:07 AM 35.6 °F 27.1 °F 26.6 °F 70% 30.01 in 2.5 mi SW 12.7 mph - 0.00 in Snow Light Snow
10:17 AM 33.8 °F 23.5 °F 26.6 °F 75% 30.01 in 1.5 mi SW 16.1 mph - 0.00 in Snow Light Snow
10:33 AM 33.8 °F 22.8 °F 30.2 °F 87% 30.01 in 1.2 mi SW 18.4 mph 24.2 mph 0.00 in Snow Light Snow
10:53 AM 33.1 °F 21.2 °F 30.9 °F 92% 30.01 in 1.0 mi SSW 20.7 mph 24.2 mph 0.00 in Snow Light Snow
11:02 AM 32.0 °F 20.1 °F 30.2 °F 93% 30.01 in 0.8 mi SW 19.6 mph 25.3 mph 0.00 in Snow Light Snow
11:53 AM 34.0 °F 22.4 °F 32.0 °F 92% 30.00 in 1.8 mi SSW 20.7 mph - 0.00 in Snow Light Snow
11:59 AM 33.8 °F 21.6 °F 32.0 °F 93% 29.99 in 3.0 mi SSW 23.0 mph 29.9 mph 0.00 in Snow Light Snow
12:24 PM 35.6 °F 24.0 °F 33.8 °F 93% 29.99 in 2.5 mi SW 23.0 mph 28.8 mph 0.00 in Snow Light Snow
12:33 PM 35.6 °F 24.0 °F 33.8 °F 93% 29.98 in 5.0 mi SW 23.0 mph 29.9 mph 0.00 in Snow Light Snow
12:44 PM 37.4 °F 26.4 °F 35.6 °F 93% 29.99 in 9.0 mi SW 23.0 mph 29.9 mph 0.00 in   Overcast
12:53 PM 37.0 °F 26.2 °F 34.0 °F 89% 29.97 in 10.0 mi SW 21.9 mph 28.8 mph 0.00 in Rain Light Rain
1:10 PM 37.4 °F 25.4 °F 35.6 °F 93% 29.98 in 10.0 mi SW 27.6 mph 33.4 mph 0.00 in   Overcast
1:31 PM 39.2 °F 28.3 °F 35.6 °F 87% 29.97 in 10.0 mi SW 25.3 mph 36.8 mph 0.00 in   Overcast
1:40 PM 39.2 °F 28.3 °F 33.8 °F 81% 29.97 in 10.0 mi SW 25.3 mph 35.7 mph 0.00 in   Overcast
1:53 PM 37.9 °F 26.6 °F 33.1 °F 83% 29.95 in 10.0 mi SW 25.3 mph 34.5 mph 0.00 in   Overcast
2:10 PM 39.2 °F 29.0 °F 33.8 °F 81% 29.97 in 10.0 mi SW 21.9 mph 29.9 mph N/A   Overcast
2:19 PM 39.2 °F 28.3 °F 33.8 °F 81% 29.96 in 10.0 mi SW 25.3 mph 32.2 mph N/A   Overcast
2:38 PM 41.0 °F 30.7 °F 33.8 °F 76% 29.95 in 10.0 mi SW 25.3 mph 34.5 mph N/A   Mostly Cloudy
2:53 PM 43.0 °F 32.9 °F 34.0 °F 71% 29.88 in 10.0 mi SW 27.6 mph 34.5 mph N/A   Mostly Cloudy
3:01 PM 42.8 °F 33.3 °F 33.8 °F 70% 29.94 in 10.0 mi SW 24.2 mph 33.4 mph N/A   Mostly Cloudy
3:10 PM 42.8 °F 33.3 °F 33.8 °F 70% 29.94 in 10.0 mi WSW 24.2 mph 34.5 mph N/A   Mostly Cloudy
3:19 PM 42.8 °F 32.7 °F 33.8 °F 70% 29.94 in 10.0 mi SW 27.6 mph 32.2 mph N/A   Mostly Cloudy
3:53 PM 41.0 °F 30.7 °F 34.0 °F 76% 29.88 in 10.0 mi SSW 25.3 mph 29.9 mph 0.00 in Rain Light Rain
4:35 PM 42.8 °F 32.9 °F 33.8 °F 70% 29.92 in 10.0 mi SW 26.5 mph 34.5 mph 0.00 in   Partly Cloudy
4:53 PM 39.9 °F 30.5 °F 33.1 °F 77% 29.88 in 10.0 mi SW 19.6 mph - 0.00 in   Scattered Clouds
5:00 PM 39.2 °F 30.5 °F 33.8 °F 81% 29.93 in 10.0 mi SW 16.1 mph - N/A   Mostly Cloudy
5:29 PM 41.0 °F 32.2 °F 33.8 °F 76% 29.91 in 10.0 mi SW 18.4 mph - N/A   Mostly Cloudy
5:53 PM 42.1 °F 34.5 °F 32.0 °F 67% 29.86 in 10.0 mi SW 15.0 mph 23.0 mph N/A   Mostly Cloudy
6:53 PM 39.9 °F 32.1 °F 32.0 °F 73% 29.84 in 10.0 mi SW 13.8 mph - N/A   Mostly Cloudy
7:12 PM 39.2 °F 32.0 °F 32.0 °F 75% 29.89 in 10.0 mi SW 11.5 mph - N/A   Overcast
7:53 PM 37.0 °F 29.8 °F 30.9 °F 79% 29.85 in 10.0 mi SW 10.4 mph - N/A   Mostly Cloudy
8:03 PM 35.6 °F 28.6 °F 30.2 °F 81% 29.89 in 10.0 mi SW 9.2 mph - N/A   Scattered Clouds
8:53 PM 36.0 °F 26.0 °F 32.0 °F 86% 29.83 in 10.0 mi SW 17.3 mph - N/A   Overcast
9:26 PM 35.6 °F 26.6 °F 33.8 °F 93% 29.88 in 10.0 mi WSW 13.8 mph - 0.00 in Rain Light Rain
9:43 PM 35.6 °F 25.2 °F 32.0 °F 87% 29.87 in 5.0 mi SW 18.4 mph - 0.01 in Snow Light Snow
9:53 PM 34.0 °F 25.0 °F 32.0 °F 92% 29.82 in 8.0 mi SW 12.7 mph - 0.01 in Snow Light Snow
10:07 PM 33.8 °F 25.3 °F 32.0 °F 93% 29.86 in 10.0 mi SSW 11.5 mph - 0.00 in Rain Light Rain
10:16 PM 33.8 °F 25.8 °F 32.0 °F 93% 29.86 in 10.0 mi SSW 10.4 mph - 0.00 in   Partly Cloudy
10:53 PM 35.1 °F 26.9 °F 32.0 °F 89% 29.80 in 10.0 mi SSW 11.5 mph - 0.00 in   Clear